Regional Weather Roundup
Issued by NWS

Home | Current Version | Previous Version | Graphics & Text | Print | Product List | Glossary On
Versions: 1 2 3 4 5 6 7 8 9 10 11 12 13 14 15 16 17 18 19 20 21 22 23 24 25 26 27 28 29 30 31 32 33 34 35 36 37 38 39 40 41 42 43 44 45 46 47 48 49 50
000
ASUS44 KMEG 290210
RWRTN
TENNESSEE HOURLY STATE WEATHER ROUNDUP
NATIONAL WEATHER SERVICE MEMPHIS TN
900 PM CDT FRI AUG 28 2015

TNZ002-004-019-021-049-052-054-088>092-290300-
WEST TENNESSEE

CITY           SKY/WX    TMP DP  RH WIND       PRES   REMARKS
MEMPHIS INTL   PTCLDY    82  65  56 SE6       30.03R
NWS MEMPHIS      N/A     74 N/A N/A MISG        N/A
JACKSON        CLEAR     71  68  90 CALM      30.05R
DYERSBURG      PTCLDY   N/A N/A N/A MISG        N/A
UNION CITY     CLEAR     70  68  94 CALM      30.04R
PARIS          CLEAR     66  64  94 CALM      30.07R
LEXINGTON      PTCLDY    70  68  94 CALM      30.06R
$$

TNZ008-025-027-028-033-062-065-066-290300-
NORTH MIDDLE TENNESSEE

CITY           SKY/WX    TMP DP  RH WIND       PRES   REMARKS
NASHVILLE      PTCLDY    77  63  61 S5        30.09R
CLARKSVILLE    LGT RAIN  70  64  81 CALM      30.06R
SMYRNA         CLEAR     72  66  81 CALM      30.10R
COOKEVILLE     CLEAR     70  66  88 E3        30.13R
CROSSVILLE     PTCLDY    70  63  78 CALM      30.19R
$$

TNZ061-075-076-078-094-096-097-290300-
SOUTH MIDDLE TENNESSEE

CITY           SKY/WX    TMP DP  RH WIND       PRES   REMARKS
FAYETTEVILLE     N/A     73  64  73 CALM      30.12R
TULLAHOMA      CLEAR     75  64  69 SE3       30.13R
WINCHESTER     CLEAR     72  66  83 E7        30.13R
MCMINNVILLE    CLEAR     70  70 100 CALM      30.13R
COLUMBIA       CLEAR     73  73 100 CALM      30.08R
SHELBYVILLE    CLEAR     72  70  94 E5        30.11R
$$

TNZ017-018-042-046-047-290300-
NORTHEAST TENNESSEE

CITY           SKY/WX    TMP DP  RH WIND       PRES   REMARKS
TRI CITIES     PTCLDY    68  62  81 N3        30.19R
ELIZABETHTON   CLEAR     63  61  94 CALM      30.21R
$$

TNZ012-013-036-069-073-074-290300-
CENTRAL EAST TENNESSEE

CITY           SKY/WX    TMP DP  RH WIND       PRES   REMARKS
KNOXVILLE      MOCLDY    78  62  57 SE5       30.14R
OAK RIDGE      PTCLDY    73  66  78 CALM      30.15R
GATLINBURG     CLEAR     72  61  68 CALM      30.15R
MORRISTOWN     CLEAR     70  63  78 CALM      30.18R
$$

TNZ083-085-099-290300-
SOUTHEAST TENNESSEE

CITY           SKY/WX    TMP DP  RH WIND       PRES   REMARKS
CHATTANOOGA    PTCLDY    78  65  63 SE5       30.14R
$$

SKY/WX REPORTED AS FAIR MEANS FEW OR NO CLOUDS BELOW
12 THOUSAND FEET.



USA.gov is the U.S. government's official web portal to all federal, state and local government web resources and services.